Weather History for Iron Mountain, MI

Change the Weather History Date:

Saturday, August 30, 2014

  Actual Average Record
Temperature  
Mean Temperature 66 °F -  
Max Temperature 73 °F 76 °F 94 °F (1991)
Min Temperature 60 °F 52 °F 32 °F (1931)
Cooling Degree Days 2    
Growing Degree Days 16 (Base 50)    
Moisture  
Dew Point 63 °F    
Average Humidity 90    
Maximum Humidity 97    
Minimum Humidity 76    
Precipitation  
Precipitation 0.72 in - - ()
Sea Level Pressure  
Sea Level Pressure 29.78 in    
Wind  
Wind Speed 4 mph (NNW)    
Max Wind Speed 16 mph    
Max Gust Speed 22 mph    
Visibility 6 miles    
Events Rain    
Averages and records for this station are not official NWS values.
T = Trace of Precipitation, MM = Missing Value Source: NWS Daily Summary

Daily Weather History Graph

Daily Weather History Graph

Search for Another Location

Airport:

Trip Planner

Search our weather history database for the weather conditions in past years. The results will help you decide how hot, cold, wet, or windy it might be!

Date:

Astronomy

Aug. 30, 2014 Rise Set
Actual Time 6:10 AM CDT 7:34 PM CDT
Civil Twilight 5:39 AM CDT 8:05 PM CDT
Nautical Twilight 5:02 AM CDT 8:42 PM CDT
Astronomical Twilight 4:22 AM CDT 9:22 PM CDT
Moon 11:15 AM CDT (8/30) 9:50 PM CDT (8/30)
Length of Visible Light 14h 25m
Length of Day
13h 23m
Waxing Crescent, 23% of the Moon is Illuminated
Aug 30
Waxing Crescent
Sep 2
First Quarter
Sep 8
Full
Sep 15
Last Quarter
Sep 24
New

Hourly Weather History & Observations

Time (CDT) Temp. Dew Point Humidity Pressure Visibility Wind Dir Wind Speed Gust Speed Precip Events Conditions
12:54 AM 64.9 °F 64.0 °F 97% 29.83 in 6.0 mi Calm Calm - 0.00 in Rain Light Rain
1:54 AM 64.9 °F 64.0 °F 97% 29.80 in 7.0 mi Calm Calm - 0.02 in Rain Light Rain
2:54 AM 64.9 °F 63.0 °F 93% 29.77 in 8.0 mi SE 5.8 mph - 0.00 in Rain Light Rain
3:54 AM 64.0 °F 63.0 °F 96% 29.76 in 5.0 mi SE 4.6 mph - 0.00 in Rain Light Rain
4:54 AM 64.0 °F 63.0 °F 96% 29.77 in 4.0 mi SSE 5.8 mph - 0.01 in Rain Rain
5:14 AM 64.0 °F 63.0 °F 96% 29.77 in 5.0 mi Calm Calm - 0.02 in Rain Rain
5:54 AM 64.0 °F 63.0 °F 96% 29.76 in 4.0 mi Calm Calm - 0.06 in Rain Rain
6:15 AM 64.0 °F 63.0 °F 96% 29.75 in 3.0 mi NNE 3.5 mph - 0.05 in Rain Rain
6:54 AM 64.0 °F 63.0 °F 96% 29.76 in 7.0 mi Calm Calm - 0.06 in Rain Light Rain
7:01 AM 64.9 °F 63.0 °F 93% 29.76 in 7.0 mi SE 4.6 mph - 0.00 in Rain Light Rain
7:11 AM 64.0 °F 63.0 °F 96% 29.76 in 2.5 mi SSE 3.5 mph - 0.02 in Rain Rain
7:27 AM 64.0 °F 63.0 °F 96% 29.76 in 4.0 mi SSE 4.6 mph - 0.02 in Rain Light Rain
7:54 AM 64.9 °F 63.0 °F 93% 29.75 in 7.0 mi North - - 0.02 in Rain Light Rain
8:05 AM 64.9 °F 63.0 °F 93% 29.75 in 1.8 mi Calm Calm - 0.02 in Rain Rain
8:36 AM 64.9 °F 63.0 °F 93% 29.75 in 0.8 mi Calm Calm - 0.21 in Rain Heavy Rain
8:47 AM 64.9 °F 63.0 °F 93% 29.76 in 1.0 mi WNW 6.9 mph - 0.27 in Rain Heavy Rain
8:54 AM 64.9 °F 63.0 °F 93% 29.75 in 0.8 mi Calm Calm - 0.31 in Rain Heavy Rain
9:09 AM 64.9 °F 64.0 °F 97% 29.75 in 1.2 mi NE 3.5 mph - 0.08 in Rain Rain
9:33 AM 64.9 °F 63.0 °F 93% 29.76 in 1.8 mi Calm Calm - 0.21 in Rain Rain
9:40 AM 64.9 °F 63.0 °F 93% 29.76 in 3.0 mi Calm Calm - 0.22 in Rain Light Rain
9:54 AM 66.0 °F 64.0 °F 93% 29.75 in 9.0 mi Calm Calm - 0.22 in Rain Light Rain
10:07 AM 66.0 °F 63.0 °F 90% 29.76 in 10.0 mi Calm Calm - 0.00 in   Overcast
10:39 AM 66.0 °F 64.0 °F 93% 29.76 in 1.8 mi North 4.6 mph - 0.01 in Rain Rain
10:54 AM 66.0 °F 64.0 °F 93% 29.76 in 1.5 mi North 3.5 mph - 0.02 in Rain Light Rain
10:58 AM 66.0 °F 64.0 °F 93% 29.76 in 2.0 mi NNE 5.8 mph - 0.00 in Rain Light Rain
11:05 AM 66.0 °F 64.0 °F 93% 29.76 in 2.5 mi North 5.8 mph - 0.00 in Rain Light Rain
11:16 AM 66.0 °F 64.0 °F 93% 29.76 in 2.0 mi North 5.8 mph - 0.00 in Rain Light Rain
11:20 AM 66.0 °F 64.0 °F 93% 29.76 in 2.0 mi North 5.8 mph - 0.00 in Rain Light Rain
11:46 AM 66.9 °F 64.9 °F 93% 29.75 in 4.0 mi North 8.1 mph - 0.00 in Rain Light Rain
11:54 AM 68.0 °F 64.9 °F 90% 29.75 in 5.0 mi North 5.8 mph - 0.00 in Rain Light Rain
12:28 PM 68.0 °F 64.9 °F 90% 29.75 in 10.0 mi NNW 5.8 mph - 0.00 in   Overcast
12:50 PM 69.8 °F 64.4 °F 83% 29.75 in 10.0 mi Variable 5.8 mph - 0.00 in   Overcast
12:54 PM 70.0 °F 64.9 °F 84% 29.74 in 10.0 mi North 4.6 mph - 0.00 in   Overcast
1:07 PM 70.0 °F 64.0 °F 81% 29.75 in 10.0 mi North 6.9 mph - N/A   Overcast
1:17 PM 71.1 °F 64.9 °F 81% 29.75 in 10.0 mi NNW 6.9 mph - N/A   Overcast
1:24 PM 71.1 °F 64.9 °F 81% 29.75 in 10.0 mi North 8.1 mph - N/A   Overcast
1:54 PM 71.1 °F 64.9 °F 81% 29.75 in 10.0 mi NW 9.2 mph - N/A   Overcast
2:04 PM 72.0 °F 64.9 °F 78% 29.75 in 10.0 mi NNW 8.1 mph - N/A   Overcast
2:11 PM 73.0 °F 64.9 °F 76% 29.75 in 10.0 mi NNW 6.9 mph - N/A   Overcast
2:33 PM 68.0 °F 64.0 °F 87% 29.76 in 10.0 mi NNW 16.1 mph - N/A   Overcast
2:45 PM 66.9 °F 64.0 °F 90% 29.76 in 5.0 mi NNW 10.4 mph - 0.00 in Rain Light Rain
2:51 PM 66.2 °F 64.4 °F 94% 29.77 in 2.5 mi NNW 9.2 mph - 0.00 in Rain Light Rain
2:54 PM 66.9 °F 64.0 °F 90% 29.76 in 2.5 mi NNW 11.5 mph - 0.00 in Rain Light Rain
3:14 PM 66.9 °F 64.0 °F 90% 29.77 in 10.0 mi NNW 12.7 mph - 0.00 in Rain Light Rain
3:30 PM 64.9 °F 63.0 °F 93% 29.77 in 10.0 mi NW 12.7 mph - 0.00 in   Overcast
3:50 PM 66.2 °F 62.6 °F 88% 29.78 in 10.0 mi NNW 12.7 mph - 0.00 in   Overcast
3:54 PM 64.9 °F 62.1 °F 90% 29.78 in 10.0 mi NNW 11.5 mph - 0.00 in   Overcast
4:54 PM 63.0 °F 59.0 °F 87% 29.80 in 10.0 mi NW 13.8 mph - 0.00 in Rain Light Rain
5:54 PM 63.0 °F 57.9 °F 84% 29.81 in 10.0 mi NNW 11.5 mph 21.9 mph 0.00 in   Overcast
6:54 PM 62.1 °F 57.0 °F 84% 29.83 in 10.0 mi NW 9.2 mph - N/A   Overcast
7:54 PM 61.0 °F 57.0 °F 87% 29.85 in 10.0 mi NW 10.4 mph - N/A   Overcast
8:54 PM 61.0 °F 57.0 °F 87% 29.87 in 10.0 mi NW 9.2 mph - N/A   Overcast
9:54 PM 60.1 °F 57.0 °F 90% 29.88 in 10.0 mi NW 6.9 mph - N/A   Overcast
10:17 PM 60.1 °F 57.0 °F 90% 29.87 in 10.0 mi NW 6.9 mph - N/A   Mostly Cloudy
10:54 PM 60.1 °F 57.0 °F 90% 29.88 in 10.0 mi WNW 6.9 mph - N/A   Mostly Cloudy
11:26 PM 60.1 °F 55.9 °F 86% 29.89 in 10.0 mi NW 6.9 mph - N/A   Mostly Cloudy
11:54 PM 60.1 °F 55.9 °F 86% 29.89 in 10.0 mi NW 5.8 mph - N/A   Overcast